Location: Cussy
(47.0410°N, 4.6412°E)
Time: 15:38:27
(UTC+00:00)

Cosmos 2237 Rocket - Pass Details

Date: 30 November 2020
Orbit: 833 x 851 km, 71.0° (Epoch: 27 January)

Event Time Altitude Azimuth Distance (km) Brightness Sun altitude
Rises 17:58:05 0° 257° (WSW) 3,378 6.9 -20.4°
Reaches altitude 10° 18:01:18 10° 275° (W) 2,449 5.7 -20.9°
Maximum altitude 18:05:08 19° 319° (NW) 1,925 4.4 -21.6°
Drops below altitude 10° 18:09:01 10° 2° (N) 2,464 4.5 -22.2°
Enters shadow 18:10:10 - 10° (N) 2,769 4.7 -22.4°
